sat.trackr.live / text

‹ back to catalog

STARLINK-1810

NORAD 46709 · 2020-073AR

PAYLOAD ACTIVE UNKNOWN

§ Identity

Operator
Country
US
Launch date
2020-10-18
Launch site
AFETR
Launch vehicle
Mass (kg)
RCS (m²)

Purposes: comms

External: N2YO · Heavens-Above · Gunter

§ Orbital elements

Epoch: 2026-09-20T06:00:02.000160Z

Period
90.43 min
Inclination
53.0293°
Eccentricity
0.0009323
Mean motion
15.92470394 rev/d
Perigee alt
289.2 km
Apogee alt
301.6 km
Semi-major
6,673.5 km
B*
8.0205e-4
RAAN
355.9309°
Arg perigee
346.5626°
Mean anomaly
314.9472°
Rev number
601

§ Raw data

STARLINK-18101 46709U 20073AR  26263.25002315  .00277186  40152-4  80205-3 0  99902 46709  53.0293 355.9309 0009323 346.5626 314.9472 15.92470394  6014

JSON: /api/v1/satellites/46709 · /tle

For live sub-satellite position, see the globe view (requires WebGL).

§ Visibility from observer

Set your observer location to see the next 7 days of passes ≥ 10°. The values pass through the URL so the page stays shareable.

No JS? Fill the form by hand. The geolocation button needs JavaScript.